Flag for France Weather past 2 weeks in Lille, France

Now
63 °F

Broken clouds.


Feels Like: 63 °F
Forecast: 43 / 70 °F
Wind: 13 mph from Northeast

Location: Lille Airport

Current Time: May 23, 2015 at 6:51:01 PM

Latest Report: May 23, 2015 at 6:30 PM


Visibility: N/A

Pressure: 30.18 "Hg

Humidity: 64%

Dew point: 50 °F

Location of LilleLocation

Historic Weather in Lille — Graph

°F

Lille temperature yesterday

Maximum temperature yesterday: 68 °F (at 5:00 PM)
Minimum temperature yesterday: 46 °F (at 5:30 AM)
Average temperature yesterday: 56 °F

Past Weeks' High & Low Weather Summary

 TemperatureHumidityPressure
High77 °F (May 11, 3:30 PM)100% (May 13, 7:00 AM)30.36 "Hg (May 13, 7:00 AM)
Low41 °F (May 21, 4:30 AM)34% (May 21, 4:30 PM)29.68 "Hg (May 18, 7:30 PM)
Average55 °F73%30.09 "Hg
* Reported May 8 6:00 PM — May 23 6:00 PM, Lille, Weather by CustomWeather, © 2015

Note: Actual official high and low records may vary slightly from our data, if they occured in-between our weather recording intervals... More about our weather records

Advertising

Lille weather history for previous 24 hours

 ConditionsComfort  
Time TempWeatherWind HumidityBarometerVisibility
6:00 PM
Sat, May 23
63 °FPartly sunny.13 mph68%30.18 "HgN/A
5:30 PM63 °FPartly sunny.14 mph68%30.18 "HgN/A
5:00 PM61 °FPartly sunny.13 mph77%30.18 "HgN/A
4:30 PM61 °FPartly sunny.13 mph77%30.18 "HgN/A
4:00 PM63 °FPartly sunny.12 mph73%30.18 "HgN/A
3:30 PM63 °FPartly sunny.12 mph77%30.18 "HgN/A
3:00 PM63 °FPartly sunny.12 mph73%30.18 "HgN/A
2:30 PM64 °FPartly sunny.12 mph73%30.18 "HgN/A
2:00 PM64 °FPartly sunny.9 mph73%30.18 "HgN/A
1:30 PM63 °FPartly sunny.8 mph77%30.18 "Hg6 mi
1:00 PM64 °FPartly sunny.8 mph73%30.18 "Hg6 mi
12:30 PM63 °FPartly sunny.7 mph77%30.18 "Hg6 mi
12:00 PM61 °FPartly sunny.5 mph83%30.21 "Hg6 mi
11:30 AM61 °FPartly sunny.5 mph83%30.21 "Hg6 mi
11:00 AM61 °FPartly sunny.3 mph83%30.21 "Hg5 mi
10:30 AM59 °FPartly sunny.2 mph82%30.21 "Hg5 mi
10:00 AM57 °FLow clouds.2 mph88%30.21 "Hg4 mi
9:30 AM57 °FLow clouds.3 mph88%30.21 "Hg4 mi
9:00 AM55 °FLow clouds.2 mph94%30.21 "Hg4 mi
8:30 AM55 °FFog.2 mph94%30.18 "Hg3 mi
8:00 AM55 °FFog.3 mph94%30.18 "Hg2 mi
7:30 AM54 °FFog.3 mph94%30.18 "Hg2 mi
7:00 AM54 °FFog.2 mph94%30.18 "Hg2 mi
6:30 AM54 °FFog.3 mph94%30.18 "Hg3 mi
6:00 AM54 °FPassing clouds.6 mph94%30.18 "HgN/A
5:30 AM54 °FPassing clouds.6 mph94%30.18 "HgN/A
5:00 AM54 °FPartly cloudy.3 mph94%30.18 "HgN/A
4:30 AM54 °FLow clouds.2 mph94%30.18 "HgN/A
4:00 AM54 °FLow clouds.2 mph88%30.18 "HgN/A
3:30 AM54 °FLow clouds.6 mph88%30.21 "HgN/A
3:00 AM54 °FLow clouds.5 mph88%30.21 "HgN/A
2:30 AM54 °FClear.3 mph88%30.21 "Hg10 mi
2:00 AM54 °FClear.3 mph88%30.24 "Hg10 mi
1:30 AM54 °FClear.2 mph88%30.24 "Hg10 mi
1:00 AM54 °FClear.5 mph88%30.24 "Hg10 mi
12:30 AM54 °FClear.6 mph88%30.24 "Hg10 mi
12:00 AM55 °FClear.7 mph77%30.24 "Hg10 mi
11:30 PM
Fri, May 22
54 °FClear.7 mph82%30.24 "Hg10 mi
11:00 PM54 °FClear.5 mph77%30.24 "Hg10 mi
10:30 PM55 °FSunny.5 mph72%30.21 "Hg10 mi
10:00 PM55 °FSunny.6 mph72%30.24 "Hg10 mi
9:30 PM57 °FSunny.6 mph67%30.21 "Hg10 mi
9:00 PM59 °FSunny.7 mph63%30.24 "Hg10 mi
8:30 PM61 °FSunny.12 mph59%30.24 "Hg10 mi
8:00 PM63 °FSunny.9 mph56%30.24 "Hg10 mi
7:30 PM64 °FPassing clouds.10 mph56%30.21 "HgN/A
7:00 PM64 °FPassing clouds.12 mph56%30.24 "HgN/A
6:30 PM64 °FScattered clouds.13 mph56%30.24 "HgN/A
6:00 PM66 °FScattered clouds.12 mph52%30.24 "HgN/A
Weather by CustomWeather, © 2015

See weather overviewHow to use our weather pages